DW9489 Weather Reports


time (UTC)temp
C
wind
direction
speed
KPH
gust
KPH
rain 1hr
cm
rain 24hr
cm
rain mn
cm
humidity
%
barometer
mb
20260505073048 12 175 3.2 11.3 0.00 0.00 0.00 87 1012.0
20260505071544 12 180 4.8 14.5 0.00 0.00 0.00 87 1011.9
20260505070051 12 169 3.2 11.3 0.00 0.00 0.00 87 1011.8
20260505064557 12 178 4.8 17.7 0.00 0.00 0.00 86 1011.7
20260505063050 12 190 3.2 16.1 0.00 0.00 0.00 86 1011.4
20260505061554 12 167 3.2 11.3 0.00 0.00 0.00 85 1011.3
20260505060049 13 177 4.8 9.7 0.00 0.00 0.00 84 1011.1
20260505054557 13 167 3.2 11.3 0.00 0.00 0.00 84 1011.0
20260505053051 13 192 3.2 11.3 0.00 0.00 0.00 82 1010.9
20260505051541 13 173 3.2 9.7 0.00 0.00 0.00 82 1010.8
20260505041600 16 177 4.8 11.3 0.00 0.00 0.00 76 1010.2
20260505040050 16 180 3.2 9.7 0.00 0.00 0.00 74 1009.9
20260505034545 17 209 4.8 14.5 0.00 0.00 0.00 72 1009.6
20260505033043 17 180 3.2 9.7 0.00 0.00 0.00 70 1009.4
20260505031541 18 167 3.2 16.1 0.00 0.00 0.00 68 1009.2
20260505030044 19 0 0.0 11.3 0.00 0.00 0.00 66 1009.2
20260505024547 20 179 3.2 9.7 0.00 0.00 0.00 63 1008.9
20260505023048 21 173 3.2 9.7 0.00 0.00 0.00 61 1008.8
20260505021547 21 192 4.8 14.5 0.00 0.00 0.00 58 1008.8
20260505020043 22 157 8.0 16.1 0.00 0.00 0.00 55 1008.7
20260505014545 22 0 3.2 11.3 0.00 0.00 0.00 56 1008.7
20260505013045 23 182 6.4 14.5 0.00 0.00 0.00 56 1008.8
20260505011546 23 198 3.2 9.7 0.00 0.00 0.00 56 1008.8
20260505010047 23 178 4.8 16.1 0.00 0.00 0.00 55 1008.9
20260505004545 23 181 3.2 8.0 0.00 0.00 0.00 54 1008.8
20260505003042 24 176 3.2 11.3 0.00 0.00 0.00 54 1008.9
20260505001550 24 166 1.6 11.3 0.00 0.00 0.00 52 1009.0
20260505000054 24 194 1.6 9.7 0.00 0.00 0.00 50 1009.0
20260504234552 24 194 1.6 14.5 0.00 0.00 0.00 51 1009.1
20260504233049 24 0 0.0 8.0 0.00 0.00 0.00 50 1009.0
20260504231558 25 169 1.6 11.3 0.00 0.00 0.00 48 1008.9
20260504230046 25 188 1.6 8.0 0.00 0.00 0.00 47 1009.2
20260504224543 25 173 0.0 9.7 0.00 0.00 0.00 49 1009.4
20260504223046 25 179 0.0 6.4 0.00 0.00 0.00 48 1009.6
20260504221551 25 172 0.0 9.7 0.00 0.00 0.00 48 1009.7
20260504220042 25 319 0.0 8.0 0.00 0.00 0.00 48 1009.8
20260504214545 25 0 0.0 1.6 0.00 0.00 0.00 51 1010.0
20260504213044 24 172 1.6 9.7 0.00 0.00 0.00 53 1010.0
20260504211550 23 181 3.2 11.3 0.00 0.00 0.00 55 1010.1
20260504210105 23 168 0.0 9.7 0.00 0.00 0.00 55 1010.2
20260504204548 23 166 4.8 11.3 0.00 0.00 0.00 53 1010.3
20260504203046 22 184 3.2 9.7 0.00 0.00 0.00 59 1010.4
20260504201549 22 200 3.2 14.5 0.00 0.00 0.00 60 1010.1
20260504200046 22 180 4.8 11.3 0.00 0.00 0.00 60 1010.2
20260504194600 22 172 4.8 12.9 0.00 0.00 0.00 61 1010.4
20260504193042 21 186 3.2 11.3 0.00 0.00 0.00 61 1010.5
20260504191550 21 156 8.0 14.5 0.00 0.00 0.00 61 1010.5
20260504184555 20 0 4.8 16.1 0.00 0.00 0.00 62 1010.7
20260504183050 20 190 1.6 14.5 0.00 0.00 0.00 63 1010.7
20260504181558 20 175 0.0 11.3 0.00 0.00 0.00 64 1010.6
20260504180143 19 175 3.2 14.5 0.00 0.00 0.00 64 1010.7
20260504174551 18 200 4.8 9.7 0.00 0.00 0.00 64 1010.9
20260504173057 18 182 6.4 14.5 0.00 0.00 0.00 64 1010.8
20260504171551 18 172 8.0 11.3 0.00 0.00 0.00 64 1010.8
20260504160126 18 182 1.6 9.7 0.00 0.00 0.00 62 1010.3
20260504120109 12 0 0.0 0.0 0.00 0.00 0.00 76 1009.0
20260504081544 15 0 0.0 0.0 0.00 0.00 0.00 66 1008.7